Home   Weather   East Hants   Past weeks

Flag for Canada Past Weather in East Hants, Nova Scotia, Canada — Yesterday and Last 2 Weeks

Now
52 °F

Passing clouds.


Feels Like: 51 °F
Forecast: 44 / 63 °F
Wind: 5 mph from Northeast

Location: Halifax International Airport

Current Time: Oct 1, 2016 at 12:18:24 AM

Latest Report: Oct 1, 2016 at 12:00 AM


Visibility: 15 mi

Pressure: 30.45 "Hg

Humidity: 67%

Dew Point: 41 °F

Location of East HantsLocation

Past Weather in East Hants — Graph

°F

East Hants Temperature Yesterday

Maximum temperature yesterday: 63 °F (at 3:00 PM)
Minimum temperature yesterday: 41 °F (at 3:00 AM)
Average temperature yesterday: 51 °F

High & Low Weather Summary for the Past Weeks

 TemperatureHumidityPressure
High75 °F (Sep 21, 1:00 PM)100% (Sep 18, 3:00 AM)30.54 "Hg (Sep 18, 3:00 AM)
Low41 °F (Sep 25, 7:00 AM)36% (Sep 21, 5:00 PM)29.83 "Hg (Sep 25, 6:00 AM)
Average57 °F82%30.12 "Hg
* Reported Sep 15 11:00 PM — Sep 30 11:00 PM, East Hants, Weather by CustomWeather, © 2016

Note: Actual official high and low records may vary slightly from our data, if they occured in-between our weather recording intervals... More about our weather records

Advertising

East Hants Weather History for the Previous 24 Hours

Scroll right to see more
 ConditionsComfort  
Time TempWeatherWind HumidityBarometerVisibility
11:00 PM
Fri, Sep 30
50 °FPassing clouds.6 mph88%30.46 "Hg15 mi
10:00 PM52 °FPassing clouds.5 mph82%30.47 "Hg15 mi
9:00 PM52 °FPassing clouds.7 mph77%30.46 "Hg15 mi
8:00 PM55 °FHigh level clouds.5 mph63%30.46 "Hg15 mi
7:00 PM57 °FOvercast.5 mph59%30.46 "Hg15 mi
6:00 PM59 °FOvercast.6 mph55%30.45 "Hg15 mi
5:00 PM63 °FPartly sunny.7 mph39%30.45 "Hg15 mi
4:00 PM63 °FPartly sunny.8 mph39%30.46 "Hg15 mi
3:00 PM63 °FPartly sunny.5 mph42%30.48 "Hg15 mi
2:00 PM61 °FPartly sunny.5 mph45%30.49 "Hg15 mi
1:00 PM59 °FPartly sunny.5 mph55%30.52 "Hg15 mi
12:00 PM57 °FPartly sunny.9 mph63%30.53 "Hg15 mi
11:00 AM54 °FScattered clouds.6 mph77%30.53 "Hg15 mi
10:00 AM50 °FScattered clouds.8 mph88%30.54 "Hg15 mi
9:00 AM46 °FPassing clouds.7 mph93%30.53 "Hg15 mi
8:00 AM43 °FPassing clouds.3 mph100%30.53 "Hg15 mi
7:00 AM41 °FPassing clouds.7 mph100%30.52 "Hg15 mi
6:00 AM41 °FPassing clouds.6 mph100%30.50 "Hg15 mi
5:00 AM41 °FPassing clouds.7 mph100%30.51 "Hg15 mi
4:00 AM43 °FPassing clouds.6 mph93%30.51 "Hg15 mi
3:00 AM41 °FPassing clouds.5 mph100%30.50 "Hg15 mi
2:00 AM43 °FPassing clouds.8 mph93%30.50 "Hg15 mi
1:00 AM43 °FPassing clouds.7 mph93%30.50 "Hg15 mi
12:00 AM43 °FPassing clouds.10 mph100%30.50 "Hg15 mi
Weather by CustomWeather, © 2016

See weather overviewHow to use our weather pages